Station THRO1 - 9063085 - Toledo, OH Image indicating link to RSS feed of recent meteorological observations for station THRO1


Conditions at THRO1 as of
(11:30 pm EDT on 05/29/2024)
0330 GMT on 05/30/2024:
     

Click on the graph icon in the table below to see a time series plot of the last five days of that observation.

5-day plot - Wind Direction Wind Direction (WDIR): N ( 350 deg true )
5-day plot - Wind Speed Wind Speed (WSPD): 1.9 kts
5-day plot - Wind Gust Wind Gust (GST): 5.1 kts
5-day plot - Atmospheric Pressure Atmospheric Pressure (PRES):30.09 in
5-day plot - Air Temperature Air Temperature (ATMP): 57.4 °F
5-day plot - Dew Point Dew Point (DEWP): 47.3 °F
5-day plot - Wind Speed at 10 Meters Wind Speed at 10 meters (WSPD10M): 1.9 kts
5-day plot - Wind Speed at 20 Meters Wind Speed at 20 meters (WSPD20M): 1.9 kts
5-day plot -  Wind Speed, Wind Gust and Atmospheric Pressure Combined plot of Wind Speed, Gust, and Air Pressure
NOS Water Level Observation Network Water Level
Previous observations
TIME
(EDT)
5-day plot - Wind Direction
WDIR
 
5-day plot - Wind Speed
WSPD
kts
5-day plot - Wind Gust
GST
kts
5-day plot - Wave Height
WVHT
ft
5-day plot - Dominant Wave Period
DPD
sec
5-day plot - Average Wave Period
APD
sec
5-day plot - Mean Wave Direction
MWD
 
5-day plot - Atmospheric Pressure
PRES
in
5-day plot - Pressure Tendency
PTDY
in
5-day plot - Air Temperature
ATMP
°F
5-day plot - Water Temperature
WTMP
°F
5-day plot - Dew Point
DEWP
°F
5-day plot - Salinity
SAL
psu
5-day plot - Visibility
VIS
nmi
5-day plot - Tide (above MLLW)
TIDE
ft
2024-05-29 11:24 pm N 1.9 5.1----30.09- 58.3- 44.8---
2024-05-29 11:18 pm N 4.1 8.0----30.09- 58.5- 45.0---
2024-05-29 11:12 pm N 4.1 5.1----30.09- 57.9- 46.4---
2024-05-29 11:06 pmNNW 2.9 5.1----30.09- 59.2- 44.8---
2024-05-29 11:00 pm- 0.0 4.1----30.09+0.03 59.0- 45.0---
2024-05-29 10:54 pm NW 1.9 5.1----30.09- 58.8- 46.2---
2024-05-29 10:48 pmNNW 2.9 5.1----30.09- 59.7- 44.4---
2024-05-29 10:42 pmNNW 2.9 5.1----30.09- 60.3- 43.9---
2024-05-29 10:36 pmNNW 4.1 6.0----30.08- 60.1- 44.6---
2024-05-29 10:30 pmNNW 2.9 5.1----30.08- 59.5- 46.4---
2024-05-29 10:24 pmNNW 1.9 5.1----30.08- 60.8- 44.4---
2024-05-29 10:18 pmNNW 1.9 4.1----30.08- 60.8- 44.8---
2024-05-29 10:12 pm N 4.1 4.1----30.08- 61.5- 45.3---
2024-05-29 10:06 pmNNW 1.9 5.1----30.08- 62.1- 44.2---
2024-05-29 10:00 pmNNW 2.9 6.0----30.08+0.02 62.4- 44.2---
2024-05-29 09:54 pm N 1.9 5.1----30.08- 62.1- 46.8---
2024-05-29 09:48 pm E 5.1 8.0----30.07- 63.9- 49.6---
2024-05-29 09:42 pm E 6.0 8.9----30.07- 63.5- 51.3---
2024-05-29 09:36 pm E 8.9 11.1----30.07- 63.5- 50.7---
2024-05-29 09:30 pm E 8.0 8.9----30.08- 63.9- 50.7---
2024-05-29 09:24 pm E 6.0 8.9----30.07- 63.5- 50.9---
2024-05-29 09:18 pm E 8.0 11.1----30.07- 63.7- 49.6---
2024-05-29 09:12 pm E 8.0 8.9----30.07- 63.7- 49.5---
2024-05-29 09:06 pm E 7.0 9.9----30.07- 63.9- 50.2---
2024-05-29 09:00 pm E 8.9 11.1----30.07+0.01 63.9- 49.8---
2024-05-29 08:54 pm E 7.0 8.9----30.07- 64.0- 50.7---
2024-05-29 08:48 pm E 8.0 9.9----30.07- 64.0- 50.2---
2024-05-29 08:42 pm E 7.0 11.1----30.07- 63.7- 49.5---
2024-05-29 08:36 pm E 6.0 8.9----30.07- 63.5- 49.5---
2024-05-29 08:30 pm E 6.0 8.9----30.07- 63.3- 50.5---
2024-05-29 08:24 pm E 9.9 12.0----30.07- 63.3- 51.3---
2024-05-29 08:18 pmENE 9.9 11.1----30.07- 63.9- 52.5---
2024-05-29 08:12 pmENE 9.9 13.0----30.07- 64.0- 52.2---
2024-05-29 08:06 pm E 8.0 11.1----30.06- 64.4- 52.3---
2024-05-29 08:00 pm E 8.0 8.9----30.06+0.02 64.0- 53.4---
2024-05-29 07:54 pmENE 7.0 8.9----30.06- 64.0- 53.4---
2024-05-29 07:48 pm E 8.0 11.1----30.06-------
2024-05-29 07:42 pm E 8.0 9.9----30.06-------
2024-05-29 07:36 pmENE 7.0 9.9----30.06-------
2024-05-29 07:30 pm E 8.0 9.9----30.06- 64.4- 54.0---
2024-05-29 07:24 pm E 8.0 9.9----30.06- 64.4- 54.9---
2024-05-29 07:18 pm E 8.0 11.1----30.06- 64.2- 54.3---
2024-05-29 07:12 pm E 8.0 9.9----30.06- 64.2- 55.0---
2024-05-29 07:06 pm E 8.0 8.9----30.06- 64.4- 54.5---
2024-05-29 07:00 pmENE 7.0 9.9----30.06+0.02 64.4- 55.0---
2024-05-29 06:54 pmENE 5.1 8.0----30.06- 64.4- 55.4---
2024-05-29 06:48 pmENE 5.1 8.0----30.06- 64.8- 55.4---
2024-05-29 06:42 pm E 7.0 8.9----30.06- 64.6- 55.8---
2024-05-29 06:36 pmENE 2.9 5.1----30.06- 64.6- 55.4---
2024-05-29 06:30 pm E 1.0 1.9----30.06- 64.6- 54.5---
2024-05-29 06:24 pm- 0.0 2.9----30.06- 64.4- 54.9---
2024-05-29 06:18 pm- 0.0 1.9----30.06- 65.1- 55.6---
2024-05-29 06:12 pm NW 1.9 2.9----30.06- 64.2- 55.9---
2024-05-29 06:06 pmNNW 1.0 2.9----30.06- 63.3- 55.2---
2024-05-29 06:00 pmNNW 1.9 2.9----30.06+0.02 63.0- 55.9---
2024-05-29 05:54 pmNNW 1.9 2.9----30.05- 62.6- 55.6---
2024-05-29 05:48 pm- 0.0 2.9----30.05- 62.8- 55.2---
2024-05-29 05:42 pm N 2.9 5.1----30.05- 63.0- 55.8---
2024-05-29 05:36 pmNNW 1.9 4.1----30.05- 63.5- 55.4---
2024-05-29 05:30 pm N 1.9 5.1----30.05- 63.5- 55.2---
2024-05-29 05:24 pmNNW 2.9 4.1----30.05- 63.0- 55.0---
2024-05-29 05:18 pm NW 1.9 5.1----30.05- 63.3- 54.9---
2024-05-29 05:12 pm N 4.1 5.1----30.04- 63.3- 54.9---
2024-05-29 05:06 pm N 2.9 5.1----30.04- 64.6- 54.0---
2024-05-29 05:00 pmENE 1.9 2.9----30.04+0.04 64.8- 53.6---
2024-05-29 04:54 pmNNE 1.9 5.1----30.04- 65.1- 53.8---
2024-05-29 04:48 pm- 0.0 5.1----30.04-------
2024-05-29 04:42 pm N 1.9 5.1----30.04-------
2024-05-29 04:36 pmNNE 1.9 4.1----30.03-------
2024-05-29 04:30 pmNNE 1.9 6.0----30.03- 64.4- 55.0---
2024-05-29 04:24 pmNNE 2.9 6.0----30.03- 64.8- 55.0---
2024-05-29 04:18 pm N 1.0 7.0----30.04- 64.4- 55.0---
2024-05-29 04:12 pmNNE 1.9 6.0----30.03- 64.9- 55.2---
2024-05-29 04:06 pm N 1.9 7.0----30.03- 64.2- 55.4---
2024-05-29 04:00 pmNNE 1.9 7.0----30.03+0.02 64.0- 54.7---
2024-05-29 03:54 pm- 0.0 6.0----30.04- 63.7- 55.0---
2024-05-29 03:48 pm N 1.9 6.0----30.04- 63.9- 54.0---
2024-05-29 03:42 pm N 4.1 8.9----30.04- 64.0- 53.4---
2024-05-29 03:36 pmNNW 1.0 7.0----30.04- 63.7- 54.9---
2024-05-29 03:30 pmNNW 4.1 8.9----30.04- 63.0- 53.8---
2024-05-29 03:24 pmNNW 5.1 8.9----30.04- 62.6- 54.0---
2024-05-29 03:18 pm NW 2.9 8.9----30.04- 62.2- 54.9---
2024-05-29 03:12 pmNNW 4.1 7.0----30.04- 62.1- 54.3---
2024-05-29 03:06 pm N 5.1 12.0----30.04- 62.8- 53.8---
2024-05-29 03:00 pm N 5.1 11.1----30.03- 63.3- 53.2---
2024-05-29 02:54 pm N 4.1 13.0----30.03- 63.0- 51.8---
2024-05-29 02:48 pm N 6.0 19.0----30.02- 63.9- 50.7---
2024-05-29 02:42 pmNNW 2.9 12.0----30.02- 66.4- 55.6---
2024-05-29 02:36 pmNNE 4.1 12.0----30.01- 68.4- 53.1---
2024-05-29 02:30 pmNNW 5.1 12.0----30.01- 69.4- 53.2---
2024-05-29 02:24 pm N 1.9 9.9----30.01- 67.6- 53.4---
2024-05-29 02:18 pmNNE 2.9 9.9----30.01- 68.7- 53.8---
2024-05-29 02:12 pm N 1.9 6.0----30.01- 68.4- 54.0---
2024-05-29 02:06 pmNNW 4.1 9.9----30.01- 68.4- 53.8---
2024-05-29 02:00 pm N 7.0 9.9----30.01+0.00 67.8- 53.1---
2024-05-29 01:54 pm N 5.1 7.0----30.01- 67.1- 52.9---
2024-05-29 01:48 pmNNW 5.1 8.9----30.01- 66.9- 52.5---
2024-05-29 01:42 pm N 5.1 11.1----30.01- 66.7- 52.3---
2024-05-29 01:36 pm N 5.1 8.9----30.01- 66.7- 52.2---
2024-05-29 01:30 pmNNW 5.1 8.9------------
2024-05-29 01:24 pmNNW 5.1 12.0------------
2024-05-29 01:18 pm NW 8.9 12.0----30.01-------
2024-05-29 01:12 pmNNW 8.0 13.0----30.01-------
2024-05-29 01:06 pmNNW 5.1 8.9----30.01-------
2024-05-29 01:00 pm NW 9.9 12.0----30.01+0.01 66.0- 52.9---
2024-05-29 12:54 pm NW 2.9 7.0----30.01- 65.7- 53.2---
2024-05-29 12:48 pm NW 6.0 9.9------------
2024-05-29 12:42 pm NW 8.9 12.0------------
2024-05-29 12:36 pm NW 4.1 8.9------------
2024-05-29 12:30 pmNNW 5.1 11.1------ 64.8- 54.5---
2024-05-29 12:24 pm NW 8.0 9.9------ 64.4- 53.8---
2024-05-29 12:18 pm NW 5.1 9.9------------
2024-05-29 12:12 pm NW 6.0 8.9------------
2024-05-29 12:06 pmNNW 4.1 11.1------------
2024-05-29 12:00 pm NW 11.1 14.0------ 63.5- 53.2---
2024-05-29 11:54 am NW 6.0 13.0------ 63.5- 53.6---
2024-05-29 11:48 am NW 7.0 12.0----30.02-------
2024-05-29 11:42 am NW 6.0 9.9----30.02-------
2024-05-29 11:36 amNNW 7.0 9.9----30.02-------
2024-05-29 11:30 am NW 6.0 11.1------------
2024-05-29 11:24 am NW 5.1 9.9------------
2024-05-29 11:18 am NW 5.1 11.1----30.01- 63.5- 54.1---
2024-05-29 11:12 am NW 8.0 12.0----30.01- 62.8- 54.1---
2024-05-29 11:06 amNNW 4.1 8.9----30.01- 62.1- 54.1---
2024-05-29 11:00 amNNW 6.0 9.9----30.01+0.04 62.2- 54.3---
2024-05-29 10:54 am NW 8.0 11.1----30.01- 62.1- 55.4---
2024-05-29 10:48 am NW 7.0 9.9----30.01-------
2024-05-29 10:42 am NW 5.1 7.0----30.01-------
2024-05-29 10:36 am NW 6.0 7.0----30.01-------
2024-05-29 10:30 am NW 6.0 8.0----30.01- 59.9- 55.4---
2024-05-29 10:24 am NW 5.1 6.0----30.00- 59.4- 55.4---
2024-05-29 10:18 am NW 5.1 8.9----30.00- 59.0- 54.7---
2024-05-29 10:12 am NW 7.0 8.9----30.00- 59.0- 55.2---
2024-05-29 10:06 am NW 6.0 9.9----30.00- 58.6- 54.9---
2024-05-29 10:00 am NW 6.0 8.9----30.00+0.06 58.6- 55.2---
2024-05-29 09:54 am NW 6.0 8.0----29.99- 58.3- 54.7---
2024-05-29 09:48 am NW 7.0 11.1----29.99- 58.3- 55.4---
2024-05-29 09:42 am NW 6.0 9.9----29.99- 58.1- 54.9---
2024-05-29 09:36 am NW 8.0 12.0----29.99- 57.9- 54.9---
2024-05-29 09:30 am NW 8.0 9.9----29.99- 57.7- 54.9---
2024-05-29 09:24 am NW 6.0 9.9----29.99- 57.6- 54.9---
2024-05-29 09:18 am NW 7.0 11.1----29.99- 57.4- 54.7---
2024-05-29 09:12 am NW 8.0 11.1----29.98- 57.2- 54.5---
2024-05-29 09:06 am NW 6.0 8.9----29.98- 57.0- 54.9---
2024-05-29 09:00 am NW 8.0 9.9----29.98+0.05 57.0- 54.7---
2024-05-29 08:54 am NW 7.0 8.9----29.98- 56.8- 54.3---
2024-05-29 08:48 am NW 6.0 8.9----29.98- 56.7- 54.5---
2024-05-29 08:42 am NW 5.1 7.0----29.98- 56.7- 54.3---
2024-05-29 08:36 am NW 5.1 8.9----29.98- 56.5- 54.3---
2024-05-29 08:30 am NW 6.0 8.0----29.97- 56.5- 54.3---
2024-05-29 08:24 am NW 5.1 7.0----29.97- 56.5- 54.1---
2024-05-29 08:18 am NW 4.1 6.0----29.97- 56.7- 54.9---
2024-05-29 08:12 amNNW 2.9 5.1----29.97- 56.5- 54.9---
2024-05-29 08:06 am NW 2.9 6.0----29.97- 56.3- 54.7---
2024-05-29 08:00 amNNW 4.1 7.0----29.96+0.05 56.3- 54.5---
2024-05-29 07:54 amNNW 4.1 7.0----29.96- 56.3- 54.1---
2024-05-29 07:48 amNNW 4.1 7.0----29.96-------
2024-05-29 07:42 amNNW 4.1 7.0----29.95-------
2024-05-29 07:36 amNNW 4.1 7.0----29.95-------
2024-05-29 07:30 amNNW 1.9 7.0----29.95- 56.1- 54.9---
2024-05-29 07:24 amNNW 5.1 8.0----29.95- 56.3- 54.7---
2024-05-29 07:18 amNNW 5.1 7.0----29.95- 56.1- 54.5---
2024-05-29 07:12 amNNW 4.1 8.0----29.94- 55.9- 54.9---
2024-05-29 07:06 am NW 4.1 8.9----29.94- 56.1- 54.9---
2024-05-29 07:00 amNNW 4.1 8.0----29.94+0.03 55.9- 54.9---
2024-05-29 06:54 amNNW 5.1 9.9----29.94- 55.9- 54.7---
2024-05-29 06:48 amNNW 5.1 8.9----29.94- 55.8- 54.1---
2024-05-29 06:42 am N 6.0 9.9----29.94- 55.8- 54.3---
2024-05-29 06:36 amNNW 5.1 9.9----29.93- 55.8- 54.9---
2024-05-29 06:30 amNNW 6.0 11.1----29.93- 55.8- 54.9---
2024-05-29 06:24 amNNW 2.9 8.0----29.93- 56.1- 55.4---
2024-05-29 06:18 amNNW 8.0 9.9----29.93- 56.3- 55.0---
2024-05-29 06:12 am NW 5.1 6.0----29.93- 56.7- 55.4---
2024-05-29 06:06 am N 5.1 9.9----29.93- 56.5- 56.1---
2024-05-29 06:00 amNNW 5.1 6.0----29.93+0.01 57.2- 55.0---
2024-05-29 05:54 am NW 5.1 6.0----29.92- 57.2- 54.5---
2024-05-29 05:48 am NW 4.1 5.1----29.92- 57.7- 54.5---
2024-05-29 05:42 am NW 1.9 2.9----29.92- 58.3- 54.7---
2024-05-29 05:36 amWNW 1.9 1.9----29.92- 58.6- 54.9---
2024-05-29 05:30 amWNW 1.9 2.9----29.92- 58.6- 54.5---
2024-05-29 05:24 amSSW 1.9 2.9----29.92- 58.8- 55.0---
2024-05-29 05:18 am- 0.0 2.9----29.92- 58.5- 54.7---
2024-05-29 05:12 am- 0.0 2.9----29.92- 58.5- 54.5---
2024-05-29 05:06 am N 1.9 4.1----29.91- 58.1- 54.5---
2024-05-29 05:00 amNNW 1.9 4.1----29.91+0.00 57.9- 54.1---
2024-05-29 04:54 am N 1.0 2.9----29.91- 57.9- 54.1---
2024-05-29 04:48 amNNW 2.9 4.1----29.91- 57.9- 54.0---
2024-05-29 04:42 amNNW 2.9 4.1----29.91- 57.9- 53.8---
2024-05-29 04:36 am NW 2.9 5.1----29.91- 57.9- 54.0---
2024-05-29 04:30 amNNW 2.9 5.1----29.91- 57.9- 54.0---
2024-05-29 04:24 am NW 4.1 6.0----29.91- 57.9- 54.1---
2024-05-29 04:18 am NW 4.1 5.1----29.91- 58.1- 54.0---
2024-05-29 04:12 amNNW 2.9 5.1----29.91- 58.3- 54.1---
2024-05-29 04:06 amNNW 2.9 5.1----29.91- 58.1- 54.0---
2024-05-29 04:00 amNNW 1.9 5.1----29.91- 57.9- 54.0---
2024-05-29 03:54 am NW 2.9 4.1----29.91- 57.9- 54.1---
2024-05-29 03:48 amWNW 4.1 5.1----29.91- 57.9- 54.0---
2024-05-29 03:42 am NW 2.9 5.1----29.91- 57.9- 54.0---
2024-05-29 03:36 amNNW 1.9 5.1----29.91- 57.9- 54.3---
2024-05-29 03:30 amNNW 4.1 6.0----29.91- 57.7- 53.8---
2024-05-29 03:24 am NW 4.1 6.0----29.91- 57.7- 53.8---
2024-05-29 03:18 amNNW 5.1 6.0----29.91- 57.6- 53.6---
2024-05-29 03:12 am NW 4.1 6.0----29.91- 57.6- 53.4---
2024-05-29 03:06 am NW 5.1 6.0----29.91- 57.9- 53.4---
2024-05-29 03:00 am NW 2.9 5.1----29.91+0.00 57.9- 53.4---
2024-05-29 02:54 am NW 4.1 5.1----29.91- 57.9- 53.4---
2024-05-29 02:48 am NW 4.1 5.1----29.91- 58.1- 53.6---
2024-05-29 02:42 am NW 4.1 5.1----29.91- 58.1- 53.4---
2024-05-29 02:36 am NW 4.1 5.1----29.91- 58.8- 53.8---
2024-05-29 02:30 am NW 2.9 6.0----29.91- 58.8- 53.6---
2024-05-29 02:24 am N 2.9 7.0----29.91- 58.8- 53.4---
2024-05-29 02:18 amNNW 4.1 7.0----29.91- 58.8- 53.4---
2024-05-29 02:12 amNNW 4.1 6.0----29.91- 58.8- 53.1---
2024-05-29 02:06 amNNW 4.1 6.0----29.91- 59.0- 53.4---
2024-05-29 02:00 am N 1.9 6.0----29.91+0.00 58.8- 53.6---
2024-05-29 01:54 am NW 2.9 5.1----29.91- 59.2- 54.0---
2024-05-29 01:48 amNNW 4.1 7.0----29.91- 59.0- 54.0---
2024-05-29 01:42 am N 4.1 5.1----29.91- 58.5- 54.5---
2024-05-29 01:36 am NW 1.9 2.9----29.91- 59.5- 54.1---
2024-05-29 01:30 am W 1.9 2.9----29.91- 60.6- 54.1---
2024-05-29 01:24 am SE 1.9 5.1----29.92- 61.3- 54.5---
2024-05-29 01:18 am SE 4.1 5.1----29.91- 61.5- 54.3---
2024-05-29 01:12 amESE 4.1 5.1----29.91- 62.1- 54.3---
2024-05-29 01:06 amESE 4.1 5.1----29.91- 62.2- 54.5---
2024-05-29 01:00 am--------- 62.2- 54.3---
2024-05-29 12:54 am--------- 62.2- 55.0---
2024-05-29 12:48 am E 5.1 6.0----29.91- 62.1-----
2024-05-29 12:42 am E 5.1 6.0----29.91- 62.2-----
2024-05-29 12:36 am E 4.1 7.0----29.91- 62.4-----
2024-05-29 12:30 am E 7.0 9.9----29.91- 62.8- 55.2---
2024-05-29 12:24 am E 8.0 9.9----29.91- 62.6- 55.0---
2024-05-29 12:18 am E 8.9 12.0----29.91- 63.0- 55.6---
2024-05-29 12:12 amENE 8.0 9.9----29.91- 62.8- 54.9---
2024-05-29 12:06 amENE 8.0 12.0----29.92- 63.1- 54.9---
2024-05-29 12:00 amENE 9.9 12.0----29.92+0.01 63.7- 53.8---
2024-05-28 11:54 pmENE 9.9 14.0----29.92- 63.7- 53.6---